Time,TemperatureF,DewpointF,PressureIn,WindDirection,WindDirectionDegrees,WindSpeedMPH,WindSpeedGustMPH,Humidity,HourlyPrecipIn,Conditions,Clouds,dailyrainin,SoftwareType,DateUTC
2013-05-03 09:03:00,51.0,34.0,-100.00,North,352,2.0,-999.0,52,-99.99,,,0.00,,2013-05-03 16:03:00,
2013-05-03 09:12:00,51.0,34.0,-100.00,North,352,2.0,-999.0,52,-99.99,,,0.00,,2013-05-03 16:12:00,
2013-05-03 09:22:00,51.0,34.0,-100.00,North,352,2.0,-999.0,52,-99.99,,,0.00,,2013-05-03 16:22:00,
2013-05-03 09:32:00,51.0,34.0,-100.00,North,352,2.0,-999.0,52,-99.99,,,0.00,,2013-05-03 16:32:00,
2013-05-03 10:02:00,59.0,32.0,-100.00,East,79,2.0,6.0,36,0.00,,,0.00,,2013-05-03 17:02:00,
2013-05-03 10:12:00,59.0,32.0,-100.00,East,79,2.0,6.0,36,0.00,,,0.00,,2013-05-03 17:12:00,
2013-05-03 10:22:00,59.0,32.0,-100.00,East,79,2.0,6.0,36,0.00,,,0.00,,2013-05-03 17:22:00,
2013-05-03 10:31:00,59.0,32.0,-100.00,East,79,2.0,6.0,36,0.00,,,0.00,,2013-05-03 17:31:00,
2013-05-03 11:01:00,65.0,37.0,-100.00,NNW,341,3.0,8.0,36,0.00,,,0.00,,2013-05-03 18:01:00,
2013-05-03 11:12:00,65.0,37.0,-100.00,NNW,341,3.0,8.0,36,0.00,,,0.00,,2013-05-03 18:12:00,
2013-05-03 11:21:00,65.0,37.0,-100.00,NNW,341,3.0,8.0,36,0.00,,,0.00,,2013-05-03 18:21:00,
2013-05-03 11:31:00,65.0,37.0,-100.00,NNW,341,3.0,8.0,36,0.00,,,0.00,,2013-05-03 18:31:00,
2013-05-03 12:01:00,69.0,32.0,-100.00,NNE,18,4.0,11.0,25,0.00,,,0.00,,2013-05-03 19:01:00,
2013-05-03 12:11:00,69.0,32.0,-100.00,NNE,18,4.0,11.0,25,0.00,,,0.00,,2013-05-03 19:11:00,
2013-05-03 12:21:00,69.0,32.0,-100.00,NNE,18,4.0,11.0,25,0.00,,,0.00,,2013-05-03 19:21:00,
2013-05-03 12:31:00,69.0,32.0,-100.00,NNE,18,4.0,11.0,25,0.00,,,0.00,,2013-05-03 19:31:00,
2013-05-03 13:02:00,69.0,27.0,-100.00,SSW,213,4.0,11.0,21,0.00,,,0.00,,2013-05-03 20:02:00,
2013-05-03 13:11:00,69.0,27.0,-100.00,SSW,213,4.0,11.0,21,0.00,,,0.00,,2013-05-03 20:11:00,
2013-05-03 13:21:00,69.0,27.0,-100.00,SSW,213,4.0,11.0,21,0.00,,,0.00,,2013-05-03 20:21:00,
2013-05-03 13:31:00,69.0,27.0,-100.00,SSW,213,4.0,11.0,21,0.00,,,0.00,,2013-05-03 20:31:00,
2013-05-03 14:01:00,71.0,28.0,-100.00,ESE,117,4.0,12.0,20,0.00,,,0.00,,2013-05-03 21:01:00,
2013-05-03 14:11:00,71.0,28.0,-100.00,ESE,117,4.0,12.0,20,0.00,,,0.00,,2013-05-03 21:11:00,
2013-05-03 14:21:00,71.0,28.0,-100.00,ESE,117,4.0,12.0,20,0.00,,,0.00,,2013-05-03 21:21:00,
2013-05-03 14:32:00,71.0,28.0,-100.00,ESE,117,4.0,12.0,20,0.00,,,0.00,,2013-05-03 21:32:00,
2013-05-03 15:02:00,71.0,25.0,-100.00,North,359,4.0,15.0,18,0.00,,,0.00,,2013-05-03 22:02:00,
2013-05-03 15:12:00,71.0,25.0,-100.00,North,359,4.0,15.0,18,0.00,,,0.00,,2013-05-03 22:12:00,
2013-05-03 15:22:00,71.0,25.0,-100.00,North,359,4.0,15.0,18,0.00,,,0.00,,2013-05-03 22:22:00,
2013-05-03 15:32:00,71.0,25.0,-100.00,North,359,4.0,15.0,18,0.00,,,0.00,,2013-05-03 22:32:00,
2013-05-03 16:01:00,72.0,25.0,-100.00,NNW,344,5.0,14.0,17,0.00,,,0.00,,2013-05-03 23:01:00,
2013-05-03 16:11:00,72.0,25.0,-100.00,NNW,344,5.0,14.0,17,0.00,,,0.00,,2013-05-03 23:11:00,
2013-05-03 16:21:00,72.0,25.0,-100.00,NNW,344,5.0,14.0,17,0.00,,,0.00,,2013-05-03 23:21:00,
2013-05-03 16:31:00,72.0,25.0,-100.00,NNW,344,5.0,14.0,17,0.00,,,0.00,,2013-05-03 23:31:00,
2013-05-03 17:01:00,70.0,27.0,-100.00,South,172,5.0,19.0,20,0.00,,,0.00,,2013-05-04 00:01:00,
2013-05-03 17:11:00,70.0,27.0,-100.00,South,172,5.0,19.0,20,0.00,,,0.00,,2013-05-04 00:11:00,
2013-05-03 17:22:00,70.0,27.0,-100.00,South,172,5.0,19.0,20,0.00,,,0.00,,2013-05-04 00:22:00,
2013-05-03 17:31:00,70.0,27.0,-100.00,South,172,5.0,19.0,20,0.00,,,0.00,,2013-05-04 00:31:00,
2013-05-03 18:01:00,69.0,22.0,-100.00,NNW,341,4.0,14.0,17,0.00,,,-99.99,,2013-05-04 01:01:00,
2013-05-03 18:11:00,69.0,22.0,-100.00,NNW,341,4.0,14.0,17,0.00,,,-99.99,,2013-05-04 01:11:00,
2013-05-03 18:21:00,69.0,22.0,-100.00,NNW,341,4.0,14.0,17,0.00,,,-99.99,,2013-05-04 01:21:00,
2013-05-03 18:31:00,69.0,22.0,-100.00,NNW,341,4.0,14.0,17,0.00,,,-99.99,,2013-05-04 01:31:00,
2013-05-03 19:02:00,66.0,-99.9,-100.00,North,-999,-999.0,-999.0,-999,0.00,,,0.00,,2013-05-04 02:02:00,
2013-05-03 19:11:00,66.0,-99.9,-100.00,North,-999,-999.0,-999.0,-999,0.00,,,0.00,,2013-05-04 02:11:00,
2013-05-03 19:22:00,66.0,-99.9,-100.00,North,-999,-999.0,-999.0,-999,0.00,,,0.00,,2013-05-04 02:22:00,
2013-05-03 19:32:00,66.0,-99.9,-100.00,North,-999,-999.0,-999.0,-999,0.00,,,0.00,,2013-05-04 02:32:00,